Burlington, IA

6:59 AM CST on December 03, 2016 (GMT -0600)
Burlington Regional

Weather History for KBRL - January, 2014

Change the Weather History Date:

Friday, January 31, 2014

  Actual Average Record
Temperature  
Mean Temperature 16 °F 27 °F  
Max Temperature 19 °F 36 °F 70 °F (1989)
Min Temperature 12 °F 18 °F -20 °F (1996)
Degree Days  
Heating Degree Days 49 38  
Month to date heating degree days 1458 1207  
Since 1 July heating degree days 3975 3401  
Cooling Degree Days 0 0  
Month to date cooling degree days 0 0  
Year to date cooling degree days 0 0  
Moisture  
Dew Point 10 °F    
Average Humidity 78    
Maximum Humidity 88    
Minimum Humidity 67    
Precipitation  
Precipitation T in 0.04 in 0.71 in (2002)
Month to date precipitation 0.93 1.24  
Year to date precipitation 0.93 1.24  
Sea Level Pressure  
Sea Level Pressure 30.11 in    
Wind  
Wind Speed 7 mph (NNE)    
Max Wind Speed 14 mph    
Max Gust Speed 18 mph    
Visibility 4 miles    
Events Snow    
T = Trace of Precipitation, MM = Missing Value Source: NWS Daily Summary

Daily Weather History Graph

Daily Weather History Graph

Search for Another Location

Airport or City:

Trip Planner

Search our weather history database for the weather conditions in past years. The results will help you decide how hot, cold, wet, or windy it might be!

Date:

Astronomy

Jan. 31, 2014 Rise Set
Actual Time 7:15 AM CST 5:20 PM CST
Civil Twilight 6:46 AM CST 5:49 PM CST
Nautical Twilight 6:13 AM CST 6:22 PM CST
Astronomical Twilight 5:41 AM CST 6:55 PM CST
Moon 7:24 AM CST (1/31) 6:46 PM CST (1/31)
Length of Visible Light 11h 03m
Length of Day
10h 05m
New Moon, 1% of the Moon is Illuminated
Jan 31
New Moon
Feb 6
First Quarter
Feb 14
Full
Feb 22
Last Quarter
Mar 1
New

Hourly Weather History & Observations

Time (CST) Temp. Windchill Dew Point Humidity Pressure Visibility Wind Dir Wind Speed Gust Speed Precip Events Conditions
12:53 AM 18.0 °F 7.7 °F 12.9 °F 81% 30.06 in 10.0 mi NNW 8.1 mph - N/A   Clear
1:53 AM 18.0 °F 6.9 °F 10.9 °F 74% 30.07 in 10.0 mi NNW 9.2 mph - N/A   Overcast
2:53 AM 15.1 °F 2.5 °F 7.0 °F 70% 30.09 in 10.0 mi North 10.4 mph - N/A   Overcast
3:53 AM 14.0 °F 1.2 °F 7.0 °F 74% 30.10 in 10.0 mi NNW 10.4 mph - N/A   Overcast
4:53 AM 12.9 °F 0.7 °F 3.9 °F 67% 30.12 in 10.0 mi North 9.2 mph - N/A   Overcast
5:53 AM 12.0 °F -0.4 °F 3.9 °F 70% 30.15 in 10.0 mi NNW 9.2 mph - N/A   Overcast
6:53 AM 12.0 °F 1.5 °F 3.9 °F 70% 30.14 in 10.0 mi NNW 6.9 mph - N/A   Overcast
7:53 AM 12.0 °F 4.1 °F 3.9 °F 70% 30.19 in 10.0 mi NW 4.6 mph - N/A   Overcast
8:53 AM 12.9 °F 3.8 °F 3.9 °F 67% 30.20 in 10.0 mi NW 5.8 mph - N/A   Overcast
9:53 AM 12.0 °F 5.9 °F 3.9 °F 70% 30.21 in 2.0 mi North 3.5 mph - 0.00 in Snow Light Snow
10:03 AM 12.0 °F 1.5 °F 6.1 °F 77% 30.18 in 1.5 mi NNW 6.9 mph - 0.00 in Snow Light Snow
10:46 AM 12.9 °F 3.8 °F 7.0 °F 77% 30.18 in 2.5 mi NNW 5.8 mph - 0.00 in Snow Light Snow
10:53 AM 12.9 °F 5.2 °F 7.0 °F 77% 30.22 in 3.0 mi North 4.6 mph - 0.00 in Snow Light Snow
11:00 AM 14.0 °F 3.9 °F 7.0 °F 74% 30.18 in 1.8 mi North 6.9 mph - 0.00 in Snow Light Snow
11:53 AM 14.0 °F 1.2 °F 8.1 °F 77% 30.20 in 1.5 mi North 10.4 mph - 0.00 in Snow Light Snow
12:53 PM 16.0 °F 3.6 °F 10.0 °F 77% 30.17 in 1.2 mi North 10.4 mph - 0.00 in Snow Light Snow
1:07 PM 16.0 °F 2.9 °F 10.0 °F 77% 30.13 in 2.0 mi North 11.5 mph - 0.00 in Snow Light Snow
1:14 PM 16.0 °F 2.9 °F 10.0 °F 77% 30.13 in 1.8 mi NNE 11.5 mph - 0.00 in Snow Light Snow
1:43 PM 16.0 °F 6.3 °F 10.0 °F 77% 30.11 in 2.5 mi NNE 6.9 mph - 0.00 in Snow Light Snow
1:53 PM 16.0 °F 4.4 °F 10.0 °F 77% 30.14 in 3.0 mi NE 9.2 mph - 0.00 in Snow Light Snow
2:16 PM 16.0 °F 8.8 °F 10.0 °F 77% 30.11 in 1.8 mi NE 4.6 mph - 0.00 in Snow Light Snow
2:32 PM 15.1 °F 9.4 °F 10.0 °F 80% 30.11 in 2.0 mi Variable 3.5 mph - 0.00 in Snow Light Snow
2:53 PM 15.1 °F 9.4 °F 10.0 °F 80% 30.15 in 1.8 mi ENE 3.5 mph - 0.00 in Snow Light Snow
3:13 PM 15.1 °F 7.7 °F 10.0 °F 80% 30.10 in 1.2 mi ENE 4.6 mph - 0.00 in Snow Light Snow
3:53 PM 16.0 °F 7.4 °F 10.9 °F 81% 30.14 in 1.5 mi NE 5.8 mph - 0.00 in Snow Light Snow
4:20 PM 15.1 °F 5.2 °F 10.9 °F 84% 30.08 in 2.0 mi NE 6.9 mph - 0.00 in Snow Light Snow
4:28 PM 15.1 °F 3.3 °F 10.9 °F 84% 30.08 in 2.5 mi NNE 9.2 mph - 0.00 in Snow Light Snow
4:35 PM 15.1 °F 4.2 °F 10.9 °F 84% 30.08 in 3.0 mi NE 8.1 mph - 0.00 in Snow Light Snow
4:53 PM 15.1 °F 6.4 °F 10.9 °F 84% 30.13 in 4.0 mi NNE 5.8 mph - 0.00 in Snow Light Snow
5:29 PM 15.1 °F 6.4 °F 10.9 °F 84% 30.08 in 2.5 mi NE 5.8 mph - 0.00 in Snow Light Snow
5:51 PM 15.8 °F 10.2 °F 12.2 °F 86% 30.09 in 1.8 mi NE 3.5 mph - 0.00 in Snow Light Snow
5:53 PM 16.0 °F 10.4 °F 12.0 °F 84% 30.13 in 1.8 mi NE 3.5 mph - 0.00 in Snow Light Snow
6:33 PM 15.1 °F 9.4 °F 12.0 °F 88% 30.09 in 0.8 mi ENE 3.5 mph - 0.00 in Snow Light Snow
6:47 PM 15.8 °F 7.2 °F 12.2 °F 86% 30.09 in 1.0 mi NNE 5.8 mph - 0.00 in Snow Light Snow
6:53 PM 16.0 °F 6.3 °F 12.0 °F 84% 30.13 in 1.5 mi NNE 6.9 mph - 0.00 in Snow Light Snow
7:53 PM 16.0 °F 7.4 °F 12.9 °F 88% 30.12 in 1.5 mi NE 5.8 mph - 0.00 in Snow Light Snow
8:08 PM 16.0 °F 5.3 °F 12.9 °F 88% 30.06 in 2.0 mi NE 8.1 mph - 0.00 in Snow Light Snow
8:17 PM 16.0 °F 5.3 °F 12.9 °F 88% 30.06 in 5.0 mi NE 8.1 mph - 0.00 in Snow Light Snow
8:42 PM 16.0 °F 5.3 °F 12.9 °F 88% 30.07 in 2.5 mi NE 8.1 mph - 0.00 in Snow Light Snow
8:49 PM 15.8 °F 5.1 °F 12.2 °F 86% 30.07 in 3.0 mi NE 8.1 mph - 0.00 in Snow Light Snow
8:53 PM 16.0 °F 5.3 °F 12.9 °F 88% 30.11 in 4.0 mi NE 8.1 mph - 0.00 in Snow Light Snow
9:03 PM 16.0 °F 6.3 °F 12.9 °F 88% 30.07 in 7.0 mi NE 6.9 mph - 0.00 in Snow Light Snow
9:53 PM 16.0 °F 4.4 °F 12.9 °F 88% 30.08 in 6.0 mi NE 9.2 mph - 0.00 in   Overcast
10:45 PM 17.1 °F 6.6 °F 12.9 °F 84% 30.04 in 8.0 mi NE 8.1 mph - N/A   Overcast
10:53 PM 17.1 °F 5.8 °F 12.9 °F 84% 30.08 in 8.0 mi NNE 9.2 mph - N/A   Overcast
11:21 PM 17.1 °F 5.8 °F 12.9 °F 84% 30.03 in 4.0 mi NE 9.2 mph - 0.00 in Snow Light Snow
11:30 PM 17.1 °F 6.6 °F 12.9 °F 84% 30.02 in 3.0 mi NE 8.1 mph - 0.00 in Snow Light Snow
11:53 PM 17.1 °F 5.8 °F 12.9 °F 84% 30.04 in 2.0 mi NE 9.2 mph - 0.00 in Snow Light Snow